Location: Unspecified
(0.0000°N, 0.0000°E)
Time: 03:12:58
(UTC+00:00)

Daily predictions for brighter satellites

Satellite Brightness Start Highest point End
(mag) Time Altitude Azimuth Time Altitude Azimuth Time Altitude Azimuth
CZ-3 R/B 4.4 01:48:32 10° WNW 02:54:17 61° SW 03:07:25 10° SE
USA 238 DEB 4.3 03:23:02 52° SE 03:23:02 52° SE 03:28:20 10° SSE
USA 238 4.3 03:23:03 53° SE 03:23:03 53° SE 03:28:25 10° SSE
ADEOS II 3.7 03:18:04 10° NE 03:27:42 - SSE 03:21:49 30° E
ARIANE 5 DEB (SYLDA) 3.7 03:24:43 52° E 03:24:43 52° E 03:27:57 10° E
Cosmos 2333 Rocket 3.7 03:23:14 32° ENE 03:23:31 32° ENE 03:28:28 10° SE
Longmarch 3A Rocket 3.8 03:32:11 65° SSW 03:33:22 75° SE 04:15:18 10° ENE
CZ-4C R/B 3.0 03:36:12 70° S 03:36:12 70° S 03:43:05 10° SSE
Cosmos 2237 Rocket 3.4 03:38:33 25° NNE 03:41:09 39° ENE 03:46:20 10° SE
ARIANE 5 R/B 3.9 03:50:53 35° NE 03:50:53 35° NE 03:52:58 10° ENE
Cosmos 1980 4.0 03:53:41 39° N 03:55:45 65° ENE 04:01:23 10° SSE
Cosmos 923 Rocket 4.2 03:58:52 60° S 03:58:52 60° S 04:03:09 10° S
Cosmos 1666 4.4 04:01:38 27° SE 04:01:38 27° SE 04:03:35 10° SSE
ARIANE 5 DEB (SYLDA) 4.2 03:59:34 49° N 03:59:58 50° N 04:10:48 10° E
Cosmos 1125 Rocket 3.9 03:56:09 10° S 04:01:16 60° ESE 04:06:21 10° NNE
ARIANE 5 R/B 2.7 04:11:02 62° S 04:11:03 62° S 04:15:41 10° E
Meteor 2-15 4.4 04:06:09 10° SSW 04:12:06 57° W 04:18:01 10° N
Cosmos 2123 Rocket 3.8 04:07:09 10° S 04:13:23 86° W 04:19:33 10° N
Cosmos 2219 Rocket 2.7 04:16:17 41° SW 04:16:17 41° SW 04:20:35 10° S
CZ-2C R/B 3.5 04:12:04 10° SSE 04:16:31 88° WSW 04:18:58 27° NNW
CZ-3B Rocket 3.9 04:18:02 17° SSW 04:18:02 17° SSW 04:20:34 10° SSE
NOSS 0 Rocket 3.9 04:15:40 38° NW 04:17:59 62° WSW 04:24:08 10° S
H-2A R/B (2) 1.3 04:21:09 71° W 04:21:27 79° NNW 04:29:08 10° ENE
Hubble Space Telescope 3.5 04:20:23 10° N 04:21:41 11° NNE 04:23:00 10° NE
Cosmos 2173 Rocket 3.9 04:16:32 10° N 04:22:41 88° E 04:28:57 10° S
Cosmos 1459 Rocket 3.9 04:21:26 10° N 04:27:41 80° W 04:33:52 10° S
Cosmos 2263 Rocket 2.1 04:27:03 10° SSW 04:32:41 88° WNW 04:38:15 10° NNE
CZ-3B DEB 4.1 04:31:54 26° WNW 04:34:45 31° NW 04:49:26 10° NNE
Cosmos 1825 Rocket 4.3 04:33:06 10° S 04:37:28 54° E 04:41:46 10° NNE
ARIANE 5 DEB (SYLDA) 1.6 04:40:34 66° N 04:40:36 66° N 04:43:15 10° E
NOAA 6 3.9 04:40:47 10° N 04:45:55 72° WNW 04:51:04 10° SSW
Ariane H10 3.9 04:45:09 27° WSW 04:47:02 61° S 04:58:30 10° E
Cosmos 2058 Rocket 3.3 04:43:02 10° NNW 04:47:11 43° W 04:51:23 10° SSW
ARIANE 5 DEB (SYLDA) 4.3 04:48:19 23° W 04:51:22 81° S 05:05:49 10° E
Cosmos 1680 Rocket 4.4 04:52:18 19° WNW 04:54:26 25° WSW 04:58:40 10° SSW
USA 215 3.7 04:50:48 10° SE 04:57:16 64° NE 05:03:43 10° NNW
Cosmos 292 Rocket 4.0 04:53:07 10° NNW 04:57:46 48° WSW 05:02:25 10° S
Ariane 42L Rocket 3.9 04:55:20 17° WSW 04:57:52 46° S 05:09:44 10° ESE
ADEOS II 3.5 04:59:03 10° NW 05:02:09 16° WNW 05:02:46 16° W
SL-24 R/B 3.8 04:59:53 10° N 05:03:25 47° W 05:06:58 10° SSW
NOSS 3-2 (A) 4.4 04:57:19 10° NW 05:05:01 46° WSW 05:12:41 10° S
ISS -1.6 05:04:43 16° WSW 05:05:27 17° SW 05:07:41 10° S
Cosmos 2333 Rocket 3.6 05:05:23 14° W 05:07:29 17° WSW 05:11:02 10° SW
Sea Lan Dem Rocket 2.8 04:59:37 14° W 05:07:49 84° S 05:11:25 10° E
Cosmos 1953 Rocket 3.5 05:05:38 10° S 05:10:02 75° W 05:14:28 10° N
Thor Agena Rocket 4.0 05:06:50 10° S 05:11:45 41° WSW 05:16:41 10° NNW
TOS 2.7 05:10:07 12° WNW 05:12:56 62° NNE 05:15:05 10° E
Radarsat Rocket 4.4 05:11:25 10° N 05:16:51 38° WNW 05:22:11 10° SW
ATLAS 5 CENTAUR R/B 3.0 05:14:28 10° NW 05:20:35 41° WSW 05:26:43 10° S
Cosmos 1340 4.4 05:21:22 10° WSW 05:23:04 13° W 05:24:47 10° WNW
H-2A ROCKET BODY 3.6 05:18:31 10° W 05:23:05 52° NNW 05:44:16 10° NE
Cosmos 1758 Rocket 3.6 05:18:58 10° SSW 05:23:17 57° W 05:27:32 10° N
Cosmos 2233 Rocket 4.2 05:18:04 10° N 05:24:14 79° E 05:30:23 10° S
Cosmos 724 4.4 05:18:09 10° NNW 05:24:19 76° WSW 05:30:23 10° SSE
Cosmos 405 Rocket 3.1 05:20:50 10° S 05:24:39 67° E 05:28:20 10° NNE
Cosmos 2237 Rocket 3.8 05:22:11 10° WNW 05:24:56 14° WSW 05:27:42 10° SW
Cosmos 1844 Rocket 3.8 05:24:10 10° S 05:29:34 50° ESE 05:34:56 10° NNE
CENTAUR R/B 4.0 05:25:12 10° N 05:33:21 57° ENE 05:41:16 10° SE
Centaur AC-42 4.1 05:36:15 10° WSW 05:59:37 50° S 06:04:34 10° E
ARIANE 5 R/B 4.1 06:05:47 10° W 07:03:26 83° N 07:08:30 10° E
